Regional Weather Roundup
Issued by NWS

Home | Current Version | Previous Version | Text Only | Print | Product List | Glossary On
Versions: 1 2 3 4 5 6 7 8 9 10 11 12 13 14 15 16 17 18 19 20 21 22 23 24 25 26 27 28 29 30 31 32 33 34 35 36 37 38 39 40 41 42 43 44 45 46 47 48 49 50
000
ASUS43 KTOP 022308
RWRKS

WEATHER ROUNDUP FOR KANSAS
NATIONAL WEATHER SERVICE GOODLAND KS
500 PM CST MON MAR 02 2015

NOTE:  "FAIR" INDICATES FEW OR NO CLOUDS BELOW 12,000 FEET WITH NO
SIGNIFICANT WEATHER AND/OR OBSTRUCTIONS TO VISIBILITY.

KSZ001>006-013>018-027>032-041>047-030000-
NORTHWEST KANSAS

CITY           SKY/WX    TMP DP  RH WIND       PRES   REMARKS
GOODLAND       CLOUDY    30  28  92 S22G29    29.83F FOG     WCI  17
HAYS           CLOUDY    34  16  47 S18       30.04F WCI  23
HILL CITY      CLOUDY    34  21  59 S16       29.99F WCI  24
RUSSELL        CLOUDY    34  19  54 SE16      30.04F WCI  24
$$

KSZ061>065-074>080-084>089-030000-
SOUTHWEST KANSAS

CITY           SKY/WX    TMP DP  RH WIND       PRES   REMARKS
DODGE CITY     CLOUDY    32  23  69 S18       30.01F WCI  20
GARDEN CITY    CLOUDY    32  27  81 S22       29.94F WCI  19
GREAT BEND     CLOUDY    34  19  55 S14       30.07F WCI  24
LIBERAL        CLOUDY    34  28  80 S18G25    29.99F WCI  23
PRATT          CLOUDY    32  23  69 S15       30.09F WCI  22
$$

KSZ066>073-081>083-090>101-030000-
SOUTHEAST KANSAS

CITY           SKY/WX    TMP DP  RH WIND       PRES   REMARKS
CHANUTE        CLOUDY    35  26  69 S12       30.22F WCI  27
COFFEYVILLE    CLOUDY    35  27  72 S6        30.25F
HUTCHINSON     CLOUDY    34  21  59 SE15      30.11F WCI  24
MEDICINE LODGE   N/A     33  23  66 S12       30.12F WCI  24
NEWTON         CLOUDY    34  21  60 S12       30.14F WCI  25
PARSONS        CLOUDY    36  27  69 SE6       30.24F
WICHITA INTL   CLOUDY    34  26  72 S14       30.12F WCI  25
WICHITA JABRA  CLOUDY    33  27  78 S10       30.13F WCI  25
WICHITA MCCONL CLOUDY    34  27  77 SE15      30.13F WCI  24
WINFIELD       CLOUDY    32  29  88 SE16      30.16F WCI  21
$$

KSZ007>012-019>026-033>040-048>060-102>105-030000-
NORTHEAST KANSAS

CITY           SKY/WX    TMP DP  RH WIND       PRES   REMARKS
CONCORDIA      CLOUDY    36  17  46 S17       30.10F WCI  26
EMPORIA        CLOUDY    33  22  63 SE16      30.15F WCI  23
LAWRENCE       CLOUDY    35  20  54 SE15      30.22F WCI  25
MANHATTAN      CLOUDY    36  19  50 SE15      30.15F WCI  27
MARYSVILLE     CLOUDY    36  19  51 SE14G22   30.12F WCI  27
OLATHE IND     CLOUDY    34  21  59 SE16      30.21F WCI  24
OLATHE EXE     CLOUDY    34  20  56 SE12      30.21F WCI  25
SALINA         CLOUDY    35  19  52 SE18      30.12F WCI  24
TOPEKA BILLARD CLOUDY    36  18  48 SE16      30.20F WCI  26
TOPEKA FORBES  CLOUDY    36  20  52 SE17      30.19F WCI  26
$$



USA.gov is the U.S. government's official web portal to all federal, state and local government web resources and services.